GFSMW_con_lsi_159.txt.gz
Lid_Strength_Index
6 5 5 5 5 5 5 4 2 1 0 1 1 1 1 1 0 1 -0 0 1 2 2 2 2 2 3 3 3 3 5 5 3 3 2 3 2 3 2 2 1 1 1
7 7 7 7 7 6 5 5 4 2 1 1 1 1 1 0 0 -0 0 0 0 1 2 2 2 2 3 3 3 3 4 4 5 5 4 5 4 4 2 2 2 2 1
9 8 8 8 7 7 6 6 5 4 2 0 0 1 0 1 1 1 0 0 -0 0 1 1 2 2 2 3 3 3 3 4 5 5 5 7 7 6 5 4 3 2 2
9 9 9 9 8 8 7 6 5 5 4 1 1 1 2 3 1 1 0 0 0 -0 0 1 1 2 2 3 2 2 3 3 4 6 5 4 5 6 6 6 4 3 3
9 9 9 9 9 9 8 7 7 7 4 2 1 1 2 1 1 1 1 1 1 1 0 0 1 1 2 2 2 3 3 2 3 4 5 6 5 4 5 6 5 4 3
10 10 10 10 10 10 10 8 9 9 8 8 6 2 2 2 2 1 2 1 1 1 1 1 1 1 1 1 1 2 2 2 2 3 3 5 6 6 5 6 6 5 4
11 11 12 12 11 11 11 10 10 10 9 8 8 7 6 5 2 2 2 2 1 1 1 1 1 1 1 1 1 2 2 2 3 3 3 3 4 4 5 5 5 6 5
11 12 12 12 12 12 12 11 10 11 11 9 9 8 7 7 6 5 3 1 1 1 0 1 2 1 1 1 1 2 2 2 3 3 3 3 3 3 4 5 5 6 6
11 11 11 12 12 12 12 12 11 11 11 11 10 9 8 8 7 7 7 7 6 5 2 0 1 1 1 1 1 1 1 2 2 2 3 3 3 3 3 4 4 6 7
12 12 12 12 12 12 12 12 12 12 12 12 11 10 10 9 9 9 9 8 8 7 6 4 3 0 1 1 1 1 1 1 1 2 2 3 3 3 3 3 3 4 6
13 13 12 12 12 13 13 14 13 13 13 13 12 11 11 10 11 11 11 10 9 9 8 7 6 4 2 0 1 1 1 1 1 1 2 2 2 3 2 3 3 4 5
13 13 13 13 13 14 14 14 13 14 13 14 13 12 12 12 13 13 13 11 11 11 10 9 8 7 5 3 1 1 2 2 2 2 2 2 2 3 3 2 3 4 4
14 14 14 15 14 15 15 15 14 14 14 14 13 13 13 13 14 14 14 13 13 13 12 11 10 9 8 7 5 3 1 1 1 1 2 2 2 2 2 2 3 3 4
15 15 15 16 15 16 16 16 15 15 15 15 14 14 13 14 15 14 14 13 14 13 12 12 11 10 9 8 6 6 6 5 2 1 1 1 2 2 2 2 3 3 4
16 16 16 16 17 17 17 16 17 16 16 16 16 15 15 15 15 15 14 14 14 13 12 13 11 11 10 9 9 9 9 8 7 5 1 1 3 6 4 2 2 3 3
16 17 17 17 17 17 17 17 18 17 16 17 16 16 16 16 16 16 15 15 14 13 13 12 12 11 10 10 10 10 10 10 9 8 5 3 6 6 8 7 6 3 3
17 17 17 18 18 18 18 19 18 17 17 17 17 17 17 17 17 16 16 16 16 15 14 13 12 11 10 9 9 10 10 10 10 9 8 6 4 5 2 5 8 7 7
18 18 18 19 19 18 18 18 18 18 18 18 18 18 18 18 17 17 17 17 16 15 15 14 12 12 10 9 8 9 9 9 8 8 7 7 7 5 4 3 2 2 4
18 18 19 19 19 19 19 19 18 18 19 19 19 18 18 18 18 18 17 16 16 15 14 13 13 12 11 9 8 8 8 9 9 8 8 7 7 8 7 6 6 4 4
19 19 20 19 20 20 19 19 19 20 20 20 19 19 19 19 18 18 17 17 16 15 15 14 13 13 12 10 10 9 9 9 9 9 9 9 7 8 8 7 7 7 6
19 20 20 20 20 20 20 20 20 21 20 20 20 20 20 19 18 18 17 17 16 16 16 15 15 14 13 13 11 11 11 11 10 10 9 9 8 8 8 8 8 9 8
20 21 21 21 21 20 21 21 22 21 21 22 22 21 20 19 18 18 18 17 17 17 17 16 16 15 14 13 13 12 12 12 13 12 10 9 8 8 8 9 8 8 9
21 21 22 22 22 22 22 23 23 22 23 24 23 22 20 19 19 19 19 19 18 18 18 17 17 17 16 15 14 14 13 13 14 13 12 11 9 8 8 8 8 9 9
23 23 23 23 24 23 23 24 23 24 25 25 24 22 22 21 20 19 19 19 19 19 18 18 18 18 17 16 15 15 15 14 14 13 13 13 10 9 9 9 9 9 8
24 24 24 24 25 25 25 25 25 26 26 25 24 24 23 22 22 21 21 20 19 17 18 18 17 18 19 16 14 14 15 16 16 17 16 14 12 10 9 9 9 9 9
25 25 25 26 27 27 27 27 28 28 28 27 26 26 24 24 23 23 23 19 17 16 15 15 15 15 14 12 13 13 13 14 14 19 20 20 20 20 19 17 10 9 10

GFSMW_con_lsi_162.txt.gz
Lid_Strength_Index
4 4 5 4 4 4 4 4 3 2 1 0 1 1 1 0 0 -0 -1 0 0 1 -0 -1 -0 0 1 1 1 1 2 2 2 4 3 2 2 3 2 1 1 1 0
5 6 5 5 5 5 4 4 4 3 2 1 0 0 0 0 -0 -0 -1 -1 -0 0 1 0 -0 0 1 1 1 1 2 2 2 4 5 6 4 3 3 2 1 1 1
7 7 6 6 6 6 5 5 4 3 2 2 1 0 -0 0 1 0 0 -0 -0 0 0 0 0 0 0 2 1 1 2 3 2 3 3 5 6 4 4 3 2 1 1
7 7 7 7 7 7 6 6 6 5 3 0 1 1 1 2 1 1 0 -0 -1 -0 -0 -0 0 0 0 1 1 1 2 2 3 4 3 2 2 5 5 3 4 2 3
7 7 8 8 8 7 7 7 7 7 6 4 1 1 1 1 1 1 1 0 -0 -1 -1 -0 -0 0 1 0 1 1 2 2 3 3 4 4 3 3 4 6 4 3 3
8 8 8 8 9 8 8 8 9 9 8 7 6 5 4 2 2 2 1 1 0 0 -0 -0 -0 -0 0 0 0 1 2 2 2 2 2 3 4 4 4 5 4 4 3
9 9 10 10 10 11 10 10 10 10 9 8 8 7 6 5 5 5 6 6 5 3 1 0 0 0 -0 0 0 1 1 1 2 2 2 2 2 2 3 4 4 4 2
10 10 11 11 11 11 11 11 10 11 11 10 9 8 7 6 7 7 6 5 5 6 5 5 5 1 -0 0 0 0 1 1 1 1 2 2 2 2 2 3 4 5 5
9 10 10 11 11 12 11 11 11 11 11 11 10 9 8 8 8 8 7 7 7 7 6 6 6 4 4 1 0 1 1 1 1 1 1 2 1 1 2 2 3 4 6
10 11 11 11 11 12 12 11 12 11 12 11 10 9 9 9 10 10 10 9 9 8 8 7 7 6 5 3 2 1 1 1 1 1 1 1 1 1 1 2 2 3 4
10 10 11 11 12 12 12 12 12 12 12 12 11 10 9 10 10 11 11 10 10 10 9 9 8 8 7 6 5 4 3 2 1 1 1 2 1 1 2 2 2 2 3
10 11 11 11 12 13 13 12 13 13 13 12 11 11 10 11 11 11 11 10 10 10 10 10 9 9 9 8 8 7 5 4 4 3 1 2 1 2 1 2 2 2 2
11 11 12 12 12 13 13 13 13 13 13 13 12 12 12 13 13 12 12 11 11 11 10 10 10 10 9 10 8 8 9 8 8 7 6 5 3 2 2 2 2 2 2
11 11 12 13 13 14 14 14 14 14 14 14 13 13 14 14 13 13 13 12 12 11 11 11 10 10 9 9 8 8 9 9 9 8 7 7 6 5 3 2 2 2 2
12 12 13 13 14 14 14 15 15 15 15 14 14 15 14 14 14 14 13 13 13 13 12 12 11 10 9 9 9 9 9 9 9 8 8 7 8 10 8 6 4 2 3
11 13 14 15 15 16 15 16 16 16 15 15 15 15 15 15 14 14 14 14 14 13 13 12 11 11 10 10 9 9 9 9 9 9 8 7 8 7 8 7 7 6 5
12 13 14 15 16 16 16 17 16 16 16 16 16 16 16 16 15 15 15 14 14 13 13 12 11 11 10 9 9 9 9 8 8 8 8 8 7 7 6 6 7 7 7
13 14 15 16 16 17 17 16 16 16 16 16 16 16 16 16 16 15 15 15 14 14 13 12 12 11 11 10 10 10 9 9 9 8 8 8 8 7 8 7 6 6 6
14 15 16 16 17 17 17 17 17 17 17 17 17 17 17 17 16 16 15 15 14 14 14 13 13 13 12 12 12 11 11 12 11 11 10 10 9 8 7 7 8 8 7
15 16 17 17 18 18 18 18 18 18 18 18 18 18 17 17 17 16 16 15 14 15 14 14 14 14 14 13 13 13 13 13 13 12 12 12 11 10 9 9 9 9 9
17 17 17 18 19 18 18 18 19 20 19 19 19 19 18 18 16 16 16 16 16 15 15 15 14 14 14 14 14 13 14 14 14 15 14 13 12 12 11 11 11 10 9
18 18 18 19 20 19 19 20 21 21 21 21 21 20 19 18 17 17 17 17 16 17 17 16 16 15 15 15 15 14 13 13 15 15 15 14 13 13 11 10 10 10 9
19 19 19 20 21 21 21 22 23 22 23 23 23 21 20 19 19 19 18 18 18 17 17 17 17 17 16 16 15 15 14 14 15 15 14 14 14 14 14 13 14 13 10
21 21 21 22 23 23 23 24 24 24 25 24 23 21 21 21 20 19 19 19 19 19 19 19 19 19 18 18 16 16 15 15 16 15 16 16 15 15 15 17 16 17 17
21 21 22 23 24 24 25 25 26 26 25 24 23 22 21 21 21 20 20 20 19 19 20 19 19 20 20 19 16 16 17 17 16 16 16 17 17 17 16 16 17 17 18
22 23 24 24 25 26 26 27 27 27 27 25 24 23 23 22 22 22 22 20 20 19 18 18 18 18 18 17 16 15 15 15 15 18 18 18 18 18 18 18 19 18 18

GFSMW_con_lsi_165.txt.gz
Lid_Strength_Index
4 3 4 4 3 3 3 3 3 2 2 1 1 1 1 0 0 -0 -1 -0 -0 -0 -0 -0 0 0 0 1 1 1 1 2 1 3 2 1 1 2 2 1 1 2 2
4 4 5 4 4 4 4 4 3 2 2 2 1 0 0 0 -0 -0 -1 -1 -0 -0 -0 -0 0 0 0 1 1 1 2 2 2 4 4 6 3 1 1 1 1 1 2
5 6 6 5 5 5 5 5 4 3 3 0 2 1 -0 0 1 0 0 -0 -0 -0 -0 -0 -0 1 0 1 1 1 1 3 2 3 3 6 6 4 1 1 1 1 1
6 6 7 7 7 7 6 6 6 5 4 2 1 1 2 2 1 1 0 0 -0 -0 -0 -0 -0 -0 0 1 1 1 1 1 3 2 2 2 3 5 6 2 2 2 2
6 7 7 8 8 8 7 7 7 6 5 4 3 1 2 1 1 1 1 0 -0 -1 -0 -0 -0 0 0 0 1 1 1 1 2 2 3 4 3 3 4 6 4 2 2
7 8 8 8 8 8 8 7 8 8 7 6 6 5 4 3 4 4 4 3 4 5 5 4 3 0 0 1 0 0 1 1 1 1 2 3 4 4 4 5 4 4 2
8 9 9 9 9 9 9 9 9 10 9 9 8 8 7 6 7 7 6 5 4 4 5 5 4 4 4 2 0 0 1 1 1 1 2 2 2 2 2 3 4 4 3
8 9 10 10 10 10 10 10 10 10 10 10 9 9 8 9 8 8 8 8 7 7 7 6 5 4 3 2 3 1 1 1 1 1 1 1 1 1 2 3 4 5 4
9 9 10 10 11 11 11 11 11 11 11 11 10 9 9 9 10 9 9 9 8 8 8 7 7 6 5 4 3 2 2 1 1 1 1 1 1 1 1 1 2 4 6
9 9 10 10 11 11 11 12 12 12 12 11 10 10 10 10 10 10 10 9 9 9 9 8 8 7 7 6 6 5 4 3 2 2 2 1 1 1 1 1 1 2 4
8 9 10 11 12 12 12 12 12 12 12 12 11 11 11 11 11 10 10 10 9 9 9 9 8 8 7 7 7 6 5 7 6 6 6 5 4 4 2 1 1 2 2
7 9 10 11 11 12 12 12 12 13 13 12 12 11 11 11 11 11 11 10 11 10 10 9 9 8 8 8 7 7 7 7 8 8 8 7 6 7 6 5 5 4 2
7 9 10 10 11 12 12 12 13 13 13 12 12 12 12 12 12 12 12 11 11 11 10 10 10 10 9 8 8 8 8 8 8 7 7 8 7 7 7 8 8 7 6
8 9 10 10 11 12 12 13 13 13 13 13 13 13 13 13 13 13 12 12 12 12 12 11 11 10 9 9 9 9 9 8 8 7 7 7 7 7 8 8 8 7 7
8 8 9 10 11 12 13 14 14 14 13 13 13 14 13 13 13 13 13 13 13 12 12 12 11 11 10 10 10 10 10 9 9 7 7 7 8 9 8 8 8 7 8
7 8 9 11 12 13 13 14 14 14 14 14 14 14 14 14 14 14 14 13 13 13 12 12 12 11 11 11 11 11 11 9 9 9 9 8 8 7 7 7 7 7 8
7 9 10 11 12 13 14 15 15 14 15 15 15 15 15 15 15 14 14 14 14 13 13 12 12 12 11 11 11 11 11 11 10 10 10 10 10 10 9 9 8 8 7
7 9 10 12 13 14 15 15 15 15 15 15 16 16 16 16 15 15 15 14 14 13 13 13 13 13 12 11 12 12 12 12 12 11 12 11 12 11 11 11 12 11 10
7 9 11 13 14 15 15 15 16 16 16 16 17 17 16 16 16 15 15 15 14 14 14 13 13 13 13 12 12 12 13 13 13 13 12 13 13 12 12 13 13 13 12
11 12 14 15 15 16 16 16 17 17 17 18 18 17 17 17 16 16 16 15 15 15 14 14 13 13 14 13 13 13 14 14 15 14 14 13 14 13 12 14 14 15 14
14 15 15 16 16 16 16 17 17 18 19 19 19 18 18 18 17 17 17 16 16 16 15 15 14 14 14 14 14 14 15 15 16 16 16 15 14 13 13 13 14 15 14
16 16 17 18 17 17 17 18 19 20 20 20 20 20 20 19 18 18 18 17 17 17 17 16 16 15 15 15 15 15 14 15 16 17 17 16 15 14 14 15 14 14 15
17 17 18 19 19 19 18 19 21 21 22 23 23 21 20 20 19 19 19 19 18 18 18 18 18 18 17 17 16 16 15 16 17 17 17 16 16 16 16 16 16 17 18
18 18 19 21 22 21 21 21 22 23 24 23 22 21 21 21 20 20 19 20 20 20 20 19 19 19 19 18 18 17 17 17 17 17 18 18 18 17 18 18 17 17 17
20 19 20 21 22 22 23 24 24 25 24 23 22 22 21 21 21 20 20 20 19 19 20 20 20 21 21 19 17 17 18 18 18 20 22 22 21 21 20 20 18 17 17
20 20 21 22 23 24 25 26 26 26 26 24 23 23 23 22 22 22 21 19 19 18 18 18 19 19 18 17 17 16 17 17 17 22 23 23 22 22 21 21 21 19 20

GFSMW_con_lsi_168.txt.gz
Lid_Strength_Index
6 6 5 5 5 5 5 5 4 4 3 4 4 2 2 1 1 1 1 1 0 -0 0 0 0 0 1 1 2 1 1 1 2 2 2 2 2 3 3 3 2 2 2
7 6 6 6 6 6 6 6 5 5 4 2 3 3 2 2 1 1 1 1 1 -0 0 1 0 0 0 1 1 1 2 2 2 3 4 5 3 2 2 2 3 2 2
7 7 7 7 7 7 8 7 6 6 5 4 2 4 3 2 2 2 1 1 0 -0 -0 -0 -0 0 0 1 1 1 2 3 2 2 3 6 6 4 2 2 2 2 2
7 7 7 8 8 8 8 8 8 8 7 6 5 3 3 3 3 3 2 1 1 1 0 0 -0 0 0 1 1 1 1 1 3 2 2 2 2 5 6 2 2 2 3
7 8 8 8 8 8 9 9 10 10 9 8 8 6 6 4 5 4 4 3 4 4 5 5 5 2 0 1 1 1 1 1 2 2 2 3 2 2 4 6 4 2 1
8 8 8 8 9 10 10 11 12 12 10 10 10 9 9 9 9 9 8 7 6 6 8 7 7 4 4 4 2 1 1 1 1 1 2 2 3 4 4 5 4 4 2
8 9 9 10 11 11 12 12 12 13 12 11 11 10 11 11 11 11 10 10 9 10 10 9 8 7 6 6 5 4 2 1 1 1 2 1 2 2 2 3 4 4 3
8 9 10 11 12 12 13 13 12 13 13 12 11 11 11 11 11 11 11 11 11 10 10 10 9 8 8 7 6 4 4 3 3 2 2 1 1 1 1 3 4 5 4
9 10 10 11 12 12 14 14 13 14 14 13 13 12 12 13 13 12 11 12 11 11 11 10 10 9 8 8 7 6 6 5 5 5 6 5 4 4 3 1 2 4 6
10 11 12 13 13 14 14 14 14 15 14 14 13 13 13 13 13 13 13 13 12 12 11 11 10 9 9 8 8 7 7 7 7 7 7 7 6 6 6 5 5 4 4
11 11 12 13 13 14 14 15 15 15 15 14 14 13 14 13 13 13 13 13 12 12 11 11 10 10 9 9 8 8 8 9 8 8 8 8 7 7 6 5 7 7 7
10 11 12 13 14 14 15 15 15 15 15 14 14 14 14 14 14 14 14 13 13 12 12 11 11 10 10 9 10 10 10 10 9 9 9 8 7 7 7 8 8 8 7
10 11 12 13 14 14 14 15 15 15 15 14 15 15 15 15 15 14 14 13 13 13 12 12 11 11 10 11 11 11 11 11 10 9 9 9 8 9 9 8 9 8 8
10 11 12 12 12 13 14 15 15 15 15 15 15 15 15 15 14 14 14 14 13 13 13 12 12 11 11 11 11 12 12 11 10 9 9 10 10 10 10 10 9 9 10
9 10 11 11 13 14 15 15 15 15 15 15 15 15 15 14 14 15 14 14 14 13 13 13 12 12 11 12 12 12 13 12 12 11 11 11 11 10 10 10 11 11 11
8 9 9 10 12 13 15 15 15 15 15 15 16 15 15 15 15 15 15 15 14 14 13 13 13 13 12 11 11 12 13 12 13 13 12 12 11 12 10 10 10 11 12
7 8 9 10 12 14 15 15 16 15 16 15 16 16 16 15 15 15 15 15 15 15 14 14 14 14 13 12 12 12 13 13 13 13 13 13 13 12 12 11 11 12 11
7 7 10 12 14 15 15 16 16 16 16 16 16 16 16 16 16 16 16 16 15 15 15 15 14 14 13 12 12 12 13 14 14 14 14 14 14 13 13 13 14 13 13
6 8 10 13 15 16 16 16 16 16 16 17 17 17 17 17 16 16 16 16 16 16 15 15 15 15 14 13 13 13 15 15 15 14 14 14 15 14 13 14 15 15 15
11 12 14 15 16 16 16 16 17 17 18 17 17 17 17 17 17 17 17 16 16 16 15 15 15 15 15 14 14 14 16 16 16 16 15 14 15 14 14 15 16 17 16
15 15 15 16 17 16 16 17 17 18 18 18 19 19 19 18 18 18 17 17 17 17 16 16 16 15 16 17 15 14 16 17 17 17 17 17 15 15 15 15 17 17 16
16 16 17 17 17 17 17 18 19 19 20 20 20 20 20 19 18 19 18 18 18 18 18 17 17 17 17 16 16 15 15 15 18 18 17 17 16 16 16 17 16 16 17
16 17 18 18 18 18 17 19 21 21 22 22 22 21 20 19 19 19 19 19 19 19 19 19 19 19 18 18 16 17 16 16 17 17 16 16 17 17 18 18 18 19 20
17 18 19 20 21 20 19 21 22 22 23 23 22 21 21 21 20 20 20 20 20 21 21 21 21 21 20 20 18 18 18 16 17 17 19 19 19 19 20 21 21 21 21
18 19 20 21 22 22 23 23 23 23 23 22 22 22 21 21 21 20 21 21 20 20 23 25 22 25 25 20 17 17 17 18 17 19 24 24 24 24 23 23 23 22 22
19 19 20 22 23 24 25 25 25 25 24 23 23 23 23 22 22 22 22 20 19 18 18 18 19 21 18 17 17 16 15 15 16 27 27 25 24 24 24 25 25 24 23

GFSMW_con_lsi_171.txt.gz
Lid_Strength_Index
8 7 6 6 6 6 6 6 6 5 4 4 5 4 3 2 2 1 1 1 2 2 1 0 0 0 1 1 1 1 2 2 2 3 2 2 2 2 2 2 2 2 2
8 7 7 7 7 8 8 7 6 6 5 4 4 4 4 3 2 1 1 1 1 1 0 0 0 0 1 1 1 1 2 2 2 3 3 5 3 2 1 1 1 2 2
9 9 8 8 8 9 9 8 8 7 7 6 3 3 4 3 3 2 2 3 2 2 1 0 -0 0 0 1 1 1 1 3 2 2 3 6 6 4 2 2 2 2 2
9 8 8 9 9 9 9 9 9 9 8 8 6 5 5 5 5 5 4 3 4 6 6 5 5 4 1 1 1 1 1 1 3 2 1 1 2 5 6 2 2 2 2
8 9 9 9 9 9 10 11 10 9 9 9 9 9 9 9 10 9 9 8 8 9 9 8 7 7 6 4 4 3 1 1 2 2 2 3 2 2 4 6 4 2 1
9 9 9 9 10 10 11 11 11 11 10 11 10 11 12 12 12 11 11 11 10 11 11 10 9 9 8 8 7 5 3 4 1 1 2 2 3 4 4 5 4 4 2
9 9 10 10 11 11 11 11 12 12 11 11 12 12 13 13 13 13 12 12 12 12 12 11 11 10 9 9 8 7 6 5 4 4 5 4 3 3 2 3 4 4 3
9 10 10 11 11 11 12 12 13 13 12 12 13 13 13 13 13 13 13 13 13 13 12 12 11 11 10 10 9 8 8 8 8 8 7 6 6 5 5 6 7 6 4
10 10 11 11 11 12 13 13 14 14 13 14 14 14 15 15 15 14 14 14 13 13 13 12 12 11 10 10 9 10 10 9 9 9 8 8 7 6 6 5 5 6 7
10 10 11 11 12 12 14 14 14 15 15 15 15 15 15 15 15 15 15 15 14 13 13 13 12 12 11 11 10 10 10 10 9 9 9 9 8 7 7 8 7 7 8
10 10 11 12 13 14 15 15 16 16 16 15 15 16 16 15 15 15 15 15 14 14 14 13 12 12 12 11 11 11 11 10 10 9 9 9 8 9 9 9 8 9 9
9 10 12 13 14 15 15 16 16 16 16 16 16 16 16 16 16 16 16 15 15 14 14 13 13 12 12 12 12 12 12 12 11 10 10 10 10 10 10 10 10 10 9
11 11 13 13 14 14 15 16 16 16 16 16 16 17 17 17 17 16 15 15 15 14 14 13 13 12 12 12 12 13 13 12 11 11 12 12 12 12 12 11 11 11 11
10 11 12 13 14 14 15 17 17 16 16 16 16 17 16 16 16 16 15 15 15 15 14 13 13 12 12 12 13 13 13 12 12 12 12 12 12 13 12 12 13 12 12
10 11 12 12 13 14 15 16 16 16 16 16 16 16 16 16 16 16 15 15 15 14 14 14 13 13 12 12 13 13 13 13 13 13 13 13 13 12 12 12 13 13 13
8 9 10 11 12 13 14 15 16 16 15 16 16 16 16 16 16 16 15 15 15 15 14 14 14 14 12 12 12 13 14 14 14 14 14 13 13 13 12 12 12 12 13
8 8 9 10 11 13 14 15 16 15 16 16 16 16 16 16 16 15 15 15 15 15 15 15 14 15 14 12 12 13 14 14 14 15 14 14 14 14 14 13 13 13 12
7 7 8 9 11 13 14 15 15 15 15 16 16 16 16 16 15 16 16 16 16 16 16 15 15 15 14 13 13 14 15 15 15 15 15 15 15 15 14 15 15 15 14
7 7 7 10 14 15 15 15 15 15 16 16 16 16 16 16 16 16 16 16 16 16 16 15 15 15 15 14 13 15 16 16 16 16 16 16 17 15 14 16 17 17 17
10 11 13 15 15 16 15 16 16 16 17 17 17 17 16 16 17 17 17 16 16 16 16 15 16 15 17 15 14 15 16 17 17 17 16 16 16 15 15 16 17 19 18
15 16 16 16 16 15 15 16 17 17 17 17 18 18 18 18 17 18 17 17 17 17 16 16 16 16 17 17 15 15 17 16 17 17 17 17 15 15 15 16 18 18 17
17 16 17 17 16 16 16 17 18 18 19 19 19 19 19 18 18 18 18 18 18 18 18 18 18 17 17 17 16 16 16 15 17 18 17 17 16 16 17 18 17 17 19
16 16 17 17 17 17 16 18 20 20 20 20 21 20 19 19 18 19 19 19 19 19 19 19 20 20 19 18 18 17 16 16 16 17 16 17 17 18 19 19 19 21 22
17 18 18 19 19 18 18 20 20 20 22 22 20 20 20 20 20 19 19 19 20 20 21 21 22 21 20 20 19 18 18 16 16 17 21 19 20 21 21 22 22 23 23
18 18 19 19 21 21 21 21 21 21 21 21 21 20 20 20 20 20 20 20 20 20 21 22 22 24 24 20 17 17 18 17 16 25 26 25 24 25 24 24 24 23 23
18 19 20 21 23 23 24 23 22 21 21 21 21 21 21 22 22 22 22 20 19 19 18 18 18 20 18 17 16 16 16 15 17 31 32 27 26 26 25 25 25 24 24

GFSMW_con_lsi_174.txt.gz
Lid_Strength_Index
9 7 7 7 7 8 7 7 6 6 5 5 5 5 4 3 2 2 1 1 2 1 1 1 0 0 0 1 1 1 1 2 2 2 2 2 2 2 2 2 2 2 2
9 8 8 8 8 8 8 7 7 7 7 6 5 4 5 3 2 2 3 2 2 2 1 0 0 0 0 1 1 1 2 2 1 3 3 5 3 3 2 1 1 1 2
9 9 8 9 10 10 9 9 9 9 8 8 4 3 4 3 4 4 4 6 6 5 5 5 4 2 1 1 1 1 2 3 2 2 3 6 6 4 2 2 2 2 2
9 9 9 9 10 10 10 10 10 9 9 9 7 5 5 6 6 6 6 8 9 8 8 7 7 6 5 5 4 4 1 1 3 2 2 1 2 5 6 2 2 2 2
9 9 9 9 10 11 11 11 10 10 10 10 9 9 9 9 9 10 10 10 10 11 11 10 9 8 8 8 7 5 4 4 2 2 2 3 2 2 4 6 4 2 1
9 9 9 9 10 11 12 12 11 11 11 11 11 11 11 11 11 11 11 11 12 12 12 11 11 10 10 10 9 8 7 6 5 5 6 5 5 4 4 5 4 4 2
9 9 10 10 11 12 12 12 12 12 11 11 12 12 12 12 12 12 13 13 13 14 14 13 12 12 11 11 9 10 10 9 10 9 8 7 8 7 7 7 7 6 4
9 9 10 10 11 11 12 13 12 13 12 12 13 13 12 12 13 13 14 14 14 14 14 14 13 12 12 11 11 11 11 11 11 11 10 10 9 8 7 8 8 9 7
10 10 10 11 11 12 12 13 13 13 13 13 13 14 14 14 14 14 14 15 15 14 14 14 13 13 12 12 12 12 12 11 11 11 11 10 9 10 10 9 9 10 12
10 10 10 11 11 12 13 13 13 13 13 13 14 14 15 14 15 15 16 16 15 15 15 14 14 13 13 13 13 13 12 12 11 11 11 11 10 10 10 9 10 10 11
9 10 10 11 11 13 14 14 14 14 14 14 15 15 16 16 16 16 16 16 16 15 15 14 14 14 14 14 14 13 13 13 12 12 12 12 11 12 12 10 11 11 11
9 10 10 12 12 13 14 14 14 15 15 15 16 16 16 17 17 17 17 16 16 15 15 14 14 14 14 14 14 14 14 13 13 13 13 13 12 13 12 12 12 12 12
11 12 13 13 14 14 15 15 16 16 16 16 16 17 17 17 17 17 17 16 16 16 15 14 14 14 14 14 14 14 14 13 13 13 13 13 14 14 13 13 14 13 13
10 11 12 12 12 13 14 15 16 16 16 16 17 17 17 17 17 17 16 16 15 15 15 14 14 14 14 14 14 14 14 14 13 13 13 13 14 14 14 13 13 13 13
10 11 11 11 12 13 14 15 15 15 16 16 17 17 16 16 16 16 16 15 15 15 15 15 14 14 13 13 14 14 14 14 14 14 14 13 14 13 13 13 14 14 14
9 9 9 10 12 12 13 14 15 15 15 16 16 16 16 15 15 15 15 15 15 15 15 15 14 14 13 12 12 14 14 14 15 15 15 14 15 14 13 13 13 13 15
8 8 8 9 10 11 12 14 14 14 15 15 16 16 15 16 15 15 15 15 15 15 15 15 14 14 14 12 13 14 15 15 16 16 15 15 15 15 15 14 14 14 14
7 8 8 8 9 10 13 14 15 15 15 15 16 16 15 15 15 15 15 15 15 15 15 15 15 15 14 13 13 15 15 16 16 16 16 16 17 16 15 16 16 16 16
7 7 8 8 11 13 14 15 15 15 15 16 16 15 15 15 16 16 16 16 16 16 15 15 15 15 15 14 14 15 16 16 16 16 16 17 17 15 15 17 17 18 17
10 11 12 14 14 15 14 15 15 15 16 16 16 15 15 15 16 16 16 16 15 15 15 15 15 16 17 15 14 15 16 17 17 17 16 16 16 15 15 17 18 19 18
14 15 15 15 15 15 15 15 16 16 16 16 16 17 17 17 16 16 16 16 16 16 16 16 16 16 17 17 15 16 17 17 17 17 18 17 15 15 16 16 19 18 17
16 16 17 17 16 15 15 16 17 17 17 17 18 18 18 17 17 17 17 17 17 17 17 17 17 17 17 17 17 17 16 16 17 18 18 17 16 17 17 18 17 17 20
16 17 17 17 17 16 16 18 19 18 19 19 19 19 18 17 17 17 18 18 17 18 18 19 19 20 19 19 18 17 17 17 17 17 17 18 18 19 20 20 19 21 23
17 18 18 18 19 18 17 18 19 19 20 20 20 19 19 19 18 18 18 18 19 19 20 20 20 20 20 20 19 18 17 17 17 19 21 20 21 21 21 23 23 23 23
18 18 18 19 21 20 21 20 20 20 20 20 19 19 19 18 18 19 19 19 19 19 20 21 21 21 22 20 18 17 17 18 18 26 26 26 25 26 25 25 24 24 24
19 19 20 21 22 22 23 23 22 20 20 20 19 19 19 19 20 20 21 18 18 17 17 17 19 19 18 17 17 16 16 16 17 30 32 29 27 26 26 26 26 25 25